{"data":{"norad_id":58594,"epoch":"2026-09-20T09:36:28.041120Z","epoch_age_seconds":158457,"freshness":"FRESH","line1":"1 58594U 23200F   26263.40032455  .00001421  00000+0  61159-4 0  9993","line2":"2 58594  43.0006 148.8594 0000872  58.7898 301.3039 15.27582697153399","mean_motion":15.27582697,"eccentricity":8.72e-5,"inclination_deg":43.0006,"raan_deg":148.8594,"arg_perigee_deg":58.7898,"mean_anomaly_deg":301.3039,"bstar":6.1159e-5,"rev_number":15339,"period_min":94.266582282452,"perigee_km":482.44272553993,"apogee_km":483.63931498666,"semimajor_km":6861.1780202633,"source":"CELESTRAK","updated_at":"2026-09-21T09:00:33.917700Z"}}